Total_Precipitation_Accumulation
0.11 0.31 0.71 1.10 2.02 2.17 1.46 0.82 0.65 0.57 0.54 0.58 0.57 0.55 0.63 0.82 1.20 2.11 2.04 1.54 1.34 1.62 2.22 3.07 3.46 2.86 2.49 2.44 2.34 2.44 2.39 2.32 2.52 2.66 2.61 2.42 2.38 2.65 2.74 2.72 2.78 2.93 2.86 2.51 2.34 2.08 1.78 1.79 1.85
0.27 0.52 0.94 1.50 2.18 1.79 1.29 0.67 0.49 0.46 0.44 0.51 0.53 0.44 0.45 0.54 0.54 0.93 1.40 1.50 1.30 1.42 1.73 2.25 2.74 2.41 2.24 2.18 2.24 2.32 2.29 2.25 2.37 2.43 2.55 2.52 2.45 2.69 2.86 2.75 2.84 3.01 2.74 2.47 2.24 1.97 1.67 1.59 1.64
0.47 0.73 1.21 1.83 1.44 1.00 0.84 0.48 0.40 0.44 0.55 0.71 0.79 0.53 0.51 0.77 0.72 0.94 1.13 1.10 1.15 1.34 1.57 1.97 2.17 2.11 2.07 2.07 2.25 2.36 2.34 2.25 2.31 2.42 2.56 2.64 2.70 2.76 2.88 2.77 2.91 2.96 2.87 2.58 2.22 1.97 1.69 1.60 1.61
0.59 0.94 1.30 1.40 0.71 0.43 0.43 0.34 0.38 0.48 0.79 0.93 0.91 0.78 0.72 0.79 0.74 0.84 0.83 0.86 1.07 1.33 1.57 1.82 1.96 1.91 2.02 2.02 2.26 2.41 2.45 2.32 2.32 2.48 2.48 2.58 2.80 2.97 3.08 2.96 2.95 2.97 2.85 2.51 2.21 1.96 1.72 1.61 1.61
0.61 1.06 1.50 1.00 0.36 0.26 0.24 0.20 0.25 0.42 0.70 0.97 0.92 1.02 1.13 1.10 0.85 0.76 0.75 0.90 1.05 1.29 1.62 1.77 1.93 1.96 2.13 2.30 2.46 2.48 2.41 2.29 2.29 2.32 2.22 2.35 2.79 3.09 3.21 3.21 3.12 3.04 2.87 2.49 2.19 1.96 1.75 1.65 1.70
0.78 1.27 1.09 0.58 0.34 0.23 0.20 0.18 0.26 0.47 0.69 0.92 1.05 1.20 1.31 1.23 0.96 0.84 0.83 1.01 1.11 1.19 1.54 1.75 2.03 2.07 2.17 2.38 2.68 2.73 2.43 2.34 2.28 2.32 2.21 2.29 2.56 2.94 3.10 3.29 3.33 3.16 2.89 2.43 2.16 1.94 1.74 1.70 1.76
0.71 0.92 0.62 0.37 0.29 0.22 0.21 0.24 0.32 0.47 0.59 0.89 1.18 1.34 1.34 1.41 1.17 0.97 1.09 1.17 1.45 1.25 1.38 1.64 1.96 2.14 2.25 2.42 2.65 2.67 2.62 2.55 2.51 2.52 2.36 2.38 2.56 2.77 2.97 3.33 3.31 3.13 2.93 2.54 2.20 1.96 1.78 1.77 1.78
0.47 0.51 0.36 0.25 0.18 0.17 0.18 0.23 0.32 0.45 0.72 0.99 1.06 1.29 1.46 1.33 1.29 1.27 1.39 1.42 1.59 1.52 1.39 1.49 1.72 2.11 2.24 2.30 2.54 2.72 2.70 2.67 2.66 2.70 2.59 2.75 2.88 2.89 2.97 3.26 3.39 3.17 2.92 2.61 2.42 2.17 1.95 1.92 1.79
0.35 0.45 0.33 0.20 0.11 0.14 0.18 0.26 0.33 0.39 0.59 0.80 0.95 1.00 0.92 1.04 1.31 1.38 1.55 1.73 1.79 1.76 1.73 1.75 1.69 1.78 1.99 2.11 2.41 2.97 2.97 2.88 2.87 2.99 3.11 3.29 3.54 3.48 3.52 3.46 3.62 3.52 3.25 3.11 2.94 2.71 2.35 2.18 1.92
0.28 0.32 0.18 0.10 0.06 0.09 0.14 0.22 0.35 0.46 0.77 1.17 1.26 1.36 1.17 1.25 1.42 1.44 1.51 1.60 1.76 1.89 1.92 2.14 1.94 1.83 1.94 1.98 2.77 3.60 3.46 3.30 3.30 3.41 3.48 3.76 3.89 4.18 3.67 4.00 4.33 4.40 4.26 4.12 3.89 3.74 3.09 2.37 1.97
0.10 0.10 0.07 0.06 0.05 0.04 0.08 0.15 0.20 0.42 0.91 1.39 1.49 1.58 1.49 1.48 1.55 1.60 1.71 1.85 2.00 2.19 2.04 2.00 2.13 2.23 2.27 2.41 2.78 3.25 3.65 3.69 3.65 3.58 3.53 3.78 3.70 3.87 3.88 4.34 5.16 5.26 4.71 4.31 4.41 4.24 3.36 2.86 2.87
0.06 0.05 0.04 0.05 0.04 0.05 0.08 0.15 0.26 0.44 0.99 1.34 1.20 1.15 1.29 1.53 1.68 1.81 2.18 2.44 2.68 2.79 2.74 2.75 2.74 2.78 2.82 2.67 2.64 2.79 3.04 3.10 3.09 3.21 3.27 3.39 3.75 3.89 4.06 4.45 4.55 4.64 4.44 4.64 4.52 4.36 3.81 3.47 3.13
0.06 0.05 0.05 0.06 0.05 0.06 0.10 0.20 0.34 0.51 0.86 0.96 0.87 0.92 1.40 1.65 1.82 2.17 2.42 2.68 2.91 3.28 3.49 4.09 4.03 3.54 3.29 3.05 2.84 2.56 2.81 2.66 2.48 2.69 2.99 3.08 3.30 3.62 3.82 3.75 3.81 3.57 3.76 4.10 4.23 3.85 3.90 3.72 3.58
0.05 0.06 0.08 0.10 0.08 0.09 0.13 0.20 0.50 0.62 0.73 0.85 0.88 1.19 1.67 2.16 2.31 2.59 2.92 3.34 3.60 4.01 4.07 4.35 4.88 4.31 3.70 3.20 2.98 2.76 2.61 2.68 2.55 2.70 2.65 2.91 3.08 3.18 3.28 3.25 3.41 3.27 3.38 3.56 3.57 3.57 3.92 3.89 3.70
0.08 0.11 0.19 0.17 0.14 0.14 0.19 0.41 0.69 0.78 0.76 1.02 1.15 1.40 1.98 2.66 2.62 2.91 3.23 3.72 4.12 4.56 4.72 4.83 5.17 4.91 4.48 3.94 3.37 2.89 2.70 2.57 2.63 2.78 2.58 2.67 2.84 2.90 2.95 3.04 3.04 3.08 2.99 3.08 3.11 3.21 3.54 3.57 3.41
0.10 0.20 0.34 0.27 0.17 0.18 0.27 0.80 0.96 0.81 0.79 1.13 1.38 1.63 2.15 2.85 2.90 3.19 3.68 4.18 4.82 5.22 5.49 5.53 5.28 5.34 5.06 4.49 3.92 3.49 3.24 3.01 2.85 2.69 2.56 2.37 2.47 2.52 2.65 2.62 2.60 2.67 2.63 2.70 2.92 2.98 3.26 3.46 3.45
0.14 0.20 0.31 0.31 0.22 0.21 0.29 0.80 0.85 0.62 0.79 1.10 1.44 1.78 2.15 2.48 2.96 3.55 4.06 4.60 5.47 6.38 6.83 6.60 5.96 5.61 5.20 4.75 4.34 4.20 4.01 3.65 3.25 3.02 2.82 2.65 2.43 2.37 2.47 2.56 2.65 2.36 2.43 2.57 2.45 2.80 3.07 3.38 3.42
0.11 0.15 0.25 0.34 0.26 0.30 0.41 0.52 0.65 0.72 0.93 1.16 1.40 1.61 1.98 2.27 2.64 3.34 3.94 4.60 5.51 6.67 7.39 7.29 6.63 5.85 5.24 4.96 4.66 4.59 4.29 3.87 3.41 3.24 3.10 2.78 2.63 2.41 2.50 2.38 2.25 2.07 2.29 2.63 2.79 3.23 3.24 3.20 3.19
0.07 0.13 0.22 0.30 0.25 0.35 0.45 0.55 0.69 0.85 1.10 1.17 1.30 1.45 1.73 2.05 2.43 3.14 3.82 4.34 4.95 5.70 6.26 6.16 5.55 5.10 4.65 4.24 3.76 3.76 3.63 3.41 3.21 3.01 2.81 2.77 2.69 2.52 2.58 2.37 2.46 2.19 2.28 2.43 2.55 2.86 3.04 2.99 2.96
0.07 0.12 0.19 0.24 0.21 0.23 0.40 0.67 0.82 0.88 1.06 1.04 1.09 1.20 1.44 1.84 2.48 3.24 3.82 3.96 3.95 4.21 4.43 3.93 3.74 3.77 3.49 3.34 3.34 3.29 3.16 2.88 2.74 2.76 2.95 2.61 2.59 2.48 2.32 2.52 2.30 2.25 2.51 2.56 2.67 2.92 3.00 2.95 2.99
0.10 0.12 0.15 0.23 0.24 0.30 0.48 0.90 1.08 0.98 1.01 0.88 0.89 1.16 1.68 2.12 2.55 3.07 3.21 3.20 3.05 2.99 2.97 2.74 2.69 3.02 3.05 3.14 3.22 3.23 3.20 3.03 2.84 2.66 2.81 2.50 2.34 2.37 2.46 2.40 2.45 2.59 2.29 2.55 2.75 2.78 2.91 2.97 2.88
0.09 0.08 0.07 0.10 0.19 0.44 0.62 1.11 1.32 1.21 1.17 0.91 0.96 1.38 1.91 2.26 2.51 2.54 2.08 1.88 2.00 2.09 2.20 2.46 2.55 2.70 2.67 2.83 2.82 2.74 2.52 2.41 2.34 2.32 2.47 2.58 2.37 2.28 2.29 2.39 2.71 2.82 2.54 2.75 2.35 2.50 2.78 2.92 2.82
0.06 0.06 0.05 0.09 0.19 0.48 0.77 1.23 1.49 1.37 1.16 0.93 0.89 0.98 1.39 1.56 1.53 1.43 1.28 1.28 1.48 1.76 2.02 2.35 2.46 2.51 2.44 2.45 2.59 2.79 2.70 2.71 2.58 2.49 2.74 2.80 2.84 2.59 2.27 2.30 2.60 2.77 2.75 2.84 2.66 2.86 2.65 2.54 2.50
0.06 0.07 0.14 0.24 0.43 0.93 1.01 1.12 1.43 1.30 1.08 0.95 0.83 0.76 0.98 1.02 0.87 0.95 1.05 1.25 1.50 1.66 1.78 2.02 2.17 2.36 2.39 2.45 2.57 2.61 2.67 2.83 2.78 2.72 2.60 2.52 2.61 2.55 2.35 2.36 2.69 2.73 2.73 2.88 2.76 2.72 2.55 2.51 2.49
0.05 0.08 0.30 0.66 0.98 1.16 0.87 1.01 1.34 1.01 0.80 0.70 0.60 0.57 0.64 0.68 0.74 0.92 1.06 1.26 1.36 1.44 1.48 1.67 1.75 1.94 2.12 2.24 2.34 2.42 2.56 2.67 2.61 2.69 2.64 2.54 2.33 2.22 2.33 2.48 2.80 2.76 2.74 2.70 2.76 2.68 2.64 2.69 2.69
0.05 0.05 0.14 0.28 0.41 0.63 0.81 1.24 1.33 0.93 0.62 0.48 0.45 0.46 0.48 0.55 0.66 0.75 0.88 0.97 1.06 1.25 1.49 1.68 1.65 1.64 1.69 1.80 2.02 2.17 2.18 2.27 2.31 2.62 2.53 2.49 2.36 2.23 2.34 2.47 2.43 2.41 2.49 2.37 2.66 2.50 2.48 2.61 2.64
0.05 0.05 0.06 0.09 0.14 0.39 0.88 1.17 1.12 0.77 0.60 0.55 0.55 0.56 0.56 0.57 0.70 0.70 0.72 0.88 0.96 0.93 1.07 1.30 1.43 1.50 1.55 1.60 1.81 1.83 1.77 1.86 2.09 2.16 2.04 1.92 2.03 2.15 2.26 2.27 2.33 2.37 2.39 2.45 2.67 2.58 2.60 2.78 2.58
0.05 0.05 0.05 0.08 0.16 0.31 0.71 1.22 1.47 1.16 0.84 0.67 0.72 0.65 0.59 0.54 0.60 0.73 0.78 0.82 0.84 0.83 1.00 1.16 1.29 1.40 1.45 1.47 1.56 1.42 1.51 1.61 1.80 1.89 1.90 1.82 1.79 1.99 2.15 2.22 2.33 2.39 2.35 2.42 2.59 2.45 2.63 2.70 2.60
0.06 0.06 0.07 0.10 0.11 0.21 0.52 0.85 0.90 1.01 0.86 0.65 0.68 0.64 0.58 0.52 0.54 0.67 0.71 0.78 0.76 0.74 0.87 1.04 1.24 1.32 1.23 1.27 1.31 1.40 1.49 1.67 1.73 1.71 1.77 1.81 1.84 1.99 2.11 2.21 2.29 2.31 2.34 2.48 2.58 2.43 2.56 2.56 2.67
0.08 0.09 0.10 0.12 0.13 0.15 0.27 0.47 0.52 0.59 0.71 0.92 0.87 0.72 0.70 0.66 0.59 0.65 0.71 0.75 0.71 0.71 0.79 0.91 1.10 1.25 1.29 1.30 1.39 1.49 1.57 1.67 1.72 1.64 1.74 1.95 2.01 2.07 2.17 2.28 2.37 2.28 2.36 2.50 2.45 2.45 2.51 2.56 2.55